THOR ABLESTAR DEB, 354

Orbit data source: Space-Track

THOR ABLESTAR DEB, 354 is space debris in LEO originally from a launch on Thu, 29 Jun 1961 UTC launched from the Air Force Eastern Test Range (AFETR). Debris objects in space refer to the collection of defunct objects orbiting the Earth. Examples of debris include non-operational satellites, rocket bodies, and fragments generated from explosions, collisions, or faulty payload assembly.

Loading next visibility...
Identifier
354, 1961-015DU
Orbit
LEO
Last TLE update
19 hours ago
Origin
Manufacturer
Unknown
Mission
Spacecraft
Bus & Motor
Unknown
Mass
Unknown
Launch date (UTC)
1961-06-29 (64 years ago)
Launch vehicle
Unknown
Launch site
Air Force Eastern Test Range (AFETR)
Object type
Payload
Rocket body
Debris
Shape & HBR
Unknown
Radar Cross Section
Small (<0.1 m²)

Expand to show TLE details & history

TLE from 19 hours ago
0 THOR ABLESTAR DEB
1 00354U 61015DU  25182.39892181  .00000063  00000-0  18936-3 0  9993
2 00354  67.0648 169.9050 0168657 197.4452 315.8299 13.49277345430548
Epoch: 2025-07-01T09:34Z
TLE epoch observation values (Epoch: 2025-07-01T09:34:26.844Z)
Latitude
25.74698°
Longitude
-85.11477°
Altitude
988.076 km
Speed
7.404 km/s
True Right ascension
22h 32m 46s
True Declination
25° 37' 01"
Sunlit
Object was in daylight at epoch
Visualization orbit readout
Latitude
4.48419°
Longitude
106.72416°
Altitude
1,199.4 km
Speed
7.195 km/s
Apparent Right ascension
08h 49m 04s
Apparent Declination
-24° 39' 40"
Sunlit
Object is in daylight
Visualization observer readout
Local Sidereal Time
16:05:52
Azimuth
261.501° W
Elevation
-29.8°
Doppler factor
1
Orbital elements
Apogee altitude
1,198.988 km
Perigee altitude
947.64 km
Semi-major axis
7,451.451 km
Eccentricity
0.01687
Inclination
67.0648°
RAAN
169.905°
Arg. of periapsis
197.4452°
True anomaly
Unknown
Mean anomaly
315.8299°
Eccentric anomaly
Unknown
Mean motion
3.37429 °/min
Orbital period
106.69 mins
BSTAR
0.00018936
Loading maneuver chart data...
Loading SW <> Apogee altitude chart data...

THOR ABLESTAR DEB Visibility forecast

Observer location: undefined°, undefined°

Span
Click to sort rows by Start time (UTC) header in descending order
Start Az.
Max El. time (UTC)
Max El. Az.
Max El.
End time (UTC)
End Az.
9 mins2025-07-02 08:29:28.749Z354.819° N2025-07-02 08:34:28.749Z47.691° ENE22.805°2025-07-02 08:38:28.749Z91.939° ESE
11 mins2025-07-02 10:19:28.749Z324.116° NNW2025-07-02 10:24:28.749Z252.791° W42.626°2025-07-02 10:30:28.749Z165.282° S
12 mins2025-07-03 00:04:28.749Z183.457° SSW2025-07-03 00:09:28.749Z122.413° SE39.84°2025-07-03 00:16:28.749Z37.491° NE
11 mins2025-07-03 01:54:28.749Z254.005° W2025-07-03 01:59:28.749Z304.047° NW28.501°2025-07-03 02:05:28.749Z9.309° NNE
|